Location: Borojevi?i
(45.0486°N, 16.2297°E)
Time: 05:18:36
(UTC+00:00)

Meteor 1-11 Rocket - Pass Details

Date: 08 August 2020
Orbit: 832 x 915 km, 81.2° (Epoch: 23 September)

Event Time Altitude Azimuth Distance (km) Brightness Sun altitude
Exits shadow 22:09:14 71° 258° (WSW) 906 3.7 -28.0°
Maximum altitude 22:09:30 73° 282° (WNW) 900 3.8 -28.1°
Drops below altitude 10° 22:15:14 10° 7° (N) 2,531 7.0 -28.3°
Sets 22:17:44 0° 10° (N) 3,487 7.9 -28.4°
